Zurück zum Katalog

STARLINK-32848

AktivKommunikationVLEO
NORAD 62808·PAYLOAD·🇺🇸 United States

Gestartet Jan 24, 2025 von Vandenberg Space Force Base

Loading…

Nächste Überflüge (nächste 24 Stunden)

TLE

AktuellSource: CelesTrak SupGP

Epoche: Sep 15, 2026, 02:04 UTC

1 62808C 25018C   26258.08659722  .00000746  00000+0  23988-4 0  2580
2 62808  53.1565 148.3343 0001227  81.9907  60.0537 15.31699575    16

Verfolge STARLINK-32848 in Echtzeit mit AllMySat

Download on the App Store